Temp
21 20 19 19 18 19 19 19 19 20 20 19 19 19 19 19 19 19 18 18 18 18 18 18 18 18 18 18 18 18 17 17 18 17 18 19 18 18 19 18 19 19 17
21 21 20 19 18 20 19 19 19 19 19 19 19 19 19 19 20 18 18 18 17 17 17 17 17 17 17 17 17 17 17 16 17 17 17 18 20 20 18 18 17 17 16
21 21 21 20 18 18 17 17 17 17 17 17 16 17 17 17 17 17 17 16 17 17 16 16 16 16 16 16 16 16 16 16 16 15 17 17 19 18 17 17 17 16 16
20 19 18 19 18 17 15 16 15 16 17 17 17 17 18 19 17 16 16 16 16 16 16 16 15 14 14 15 15 15 15 15 15 15 15 15 14 15 15 16 16 15 15
22 20 18 17 16 14 14 14 14 15 16 16 16 16 16 15 15 15 14 14 15 15 15 15 15 15 14 13 13 14 14 14 14 14 14 14 13 12 13 14 16 14 15
20 20 19 16 15 13 13 13 14 13 14 15 15 15 15 15 14 14 14 13 12 12 13 13 13 13 13 13 12 13 13 14 14 14 14 14 14 14 13 12 13 13 14
21 21 18 15 14 13 13 13 13 13 13 14 13 13 13 13 13 12 12 12 12 11 11 12 12 12 13 13 12 12 13 13 13 14 13 13 13 12 12 12 13 12 12
22 21 19 16 15 13 13 13 13 12 12 12 12 12 11 11 11 10 10 10 10 9 10 11 11 11 11 11 11 11 11 12 12 12 12 12 12 12 11 11 10 11 11
17 16 17 16 14 13 13 13 12 11 11 10 10 10 10 10 9 10 10 9 9 9 9 9 9 10 10 10 10 9 10 10 11 11 10 10 10 9 9 9 8 9 10
16 15 15 14 14 13 12 12 11 11 10 10 9 9 9 9 9 9 8 8 8 8 8 8 8 9 9 9 8 8 8 8 8 8 8 8 7 7 7 7 7 7 8
15 14 14 13 12 12 11 11 11 10 9 9 8 8 7 8 7 6 7 6 6 6 6 7 7 7 7 7 6 6 6 7 6 6 6 5 6 6 6 6 6 6 5
15 15 14 12 11 11 11 11 10 10 9 8 7 6 6 6 5 5 5 5 4 4 4 5 4 4 5 4 5 5 5 5 5 4 5 4 4 4 4 4 4 4 4
14 14 14 13 13 12 11 10 10 9 8 7 7 6 5 5 5 4 3 3 3 3 3 3 3 3 3 3 3 3 3 4 4 3 3 3 3 3 2 2 3 3 3
14 15 14 14 13 12 11 11 10 8 7 7 6 6 5 5 4 3 2 2 2 3 3 2 2 2 1 2 2 2 2 1 1 1 2 2 2 2 2 2 2 2 3
15 15 14 14 13 12 11 10 9 8 7 6 6 5 5 4 4 3 2 2 2 2 2 2 1 1 1 1 2 1 1 1 1 0 0 0 0 0 0 1 1 1 2
16 15 15 14 13 12 11 9 8 7 6 6 5 5 4 4 3 2 2 2 1 1 1 1 1 1 0 0 1 1 0 0 0 0 0 -0 0 -1 -1 -1 -1 -0 1
17 16 15 14 13 12 11 9 8 7 6 6 5 4 4 3 2 2 1 1 1 1 1 1 1 0 -0 -1 1 1 0 0 0 -0 -1 -1 -1 -1 -1 -1 -1 -2 -2
17 16 15 14 13 12 10 9 8 6 5 5 4 4 3 2 1 1 1 1 1 1 1 0 -0 0 -1 -0 1 1 1 0 -0 -1 -1 -1 -1 -2 -2 -1 -2 -2 -2
16 16 15 14 12 11 9 8 6 6 5 5 4 3 3 2 1 1 0 0 0 0 -0 -1 -1 -1 -1 0 0 -0 -1 -1 -1 -2 -2 -1 -1 -2 -2 -2 -2 -2 -2
14 13 12 11 11 9 8 7 6 6 5 5 4 3 2 2 1 1 0 0 -0 0 0 -0 -0 -1 -1 -1 -0 -1 -1 -1 -1 -2 -2 -2 -2 -2 -2 -2 -2 -2 -2
10 9 9 10 9 7 7 7 6 5 5 4 3 2 2 1 1 0 -0 -0 -0 -0 -1 -1 -1 -1 -1 -1 -1 -1 -1 -1 -1 -1 -1 -2 -3 -3 -2 -3 -2 -2 -3
8 8 9 8 6 6 6 6 5 4 3 3 2 2 1 1 0 0 -0 -1 -1 -1 -1 -1 -1 -1 -1 -1 -1 -2 -1 -1 -1 -1 -2 -2 -3 -3 -3 -3 -3 -3 -3
8 7 8 7 5 5 5 5 4 3 3 3 2 1 1 0 0 -0 -1 -1 -1 -1 -0 -0 0 -0 -1 -1 -1 -1 -2 -1 -2 -2 -2 -3 -2 -3 -3 -3 -4 -4 -4
9 8 7 7 6 5 4 5 4 4 3 3 2 1 0 -0 -0 -1 -1 -1 -1 -1 -0 -0 -0 0 -1 -1 -2 -1 -2 -2 -2 -2 -3 -3 -3 -3 -3 -3 -4 -4 -4
7 7 6 6 6 5 4 4 4 3 2 3 2 1 0 0 -1 -1 -1 -1 -0 -0 0 0 0 0 -0 -0 0 0 -1 -2 -2 -3 -3 -3 -3 -3 -3 -4 -4 -5 -5
7 7 6 5 5 5 5 4 4 3 2 2 2 1 0 0 -0 -1 -1 -1 -1 0 0 0 0 1 1 1 1 0 -0 -1 -2 -3 -3 -2 -3 -3 -3 -4 -4 -4 -5
Height
809 811 812 813 815 815 817 820 821 824 827 829 830 832 832 833 834 835 836 838 839 840 841 841 842 842 842 842 842 842 842 841 841 841 838 836 836 835 834 834 833 834 833
805 809 812 812 814 814 815 817 820 822 824 826 827 829 830 831 831 832 833 834 836 837 837 837 837 838 838 837 837 837 837 837 837 836 836 834 831 829 830 830 830 830 831
801 806 808 810 812 814 815 816 817 819 821 823 824 825 826 827 828 829 830 830 830 831 832 832 832 832 833 832 832 833 833 832 832 832 833 832 827 828 828 829 828 829 828
799 804 806 808 810 812 814 815 815 816 817 819 821 823 825 825 826 827 826 827 827 828 828 829 829 829 829 828 828 829 829 829 828 828 828 829 830 830 829 827 827 826 826
791 798 802 805 807 810 812 814 814 815 816 817 819 821 823 824 824 825 825 826 825 826 826 826 826 826 826 825 824 824 824 825 825 824 824 824 825 827 827 826 824 825 824
789 795 798 802 805 807 810 812 814 815 816 817 818 819 820 822 823 823 824 825 825 824 824 824 823 823 822 821 821 821 821 820 820 820 820 820 821 821 823 824 823 824 823
782 787 796 798 802 804 808 811 812 814 815 816 818 819 820 821 821 822 823 824 824 824 823 822 821 821 820 819 819 819 818 817 816 816 817 817 817 817 818 820 820 821 821
774 780 787 793 798 801 806 808 810 812 814 816 817 819 819 820 821 821 822 822 822 822 821 820 820 819 818 817 817 817 817 815 815 814 814 814 814 815 816 818 819 819 819
778 783 787 793 797 801 806 807 809 812 814 815 817 819 820 820 821 820 820 820 820 820 820 819 819 818 816 815 815 815 814 814 813 813 813 813 814 816 816 816 819 820 817
780 784 789 793 798 801 804 808 810 812 813 815 817 818 819 820 820 820 819 819 819 818 818 817 817 816 815 814 813 813 812 813 812 812 812 814 814 815 816 816 817 818 818
778 783 789 794 797 801 803 806 808 810 813 815 816 817 818 819 820 820 819 819 818 817 816 815 814 814 813 812 812 811 812 813 813 813 812 812 813 812 814 814 815 817 816
778 780 787 792 798 801 803 805 808 809 812 814 816 817 818 818 818 818 818 818 819 818 816 815 814 813 812 811 812 811 812 812 813 814 813 812 812 813 814 814 815 815 814
781 783 787 790 794 799 802 804 806 809 810 811 814 816 818 818 817 816 817 817 818 817 816 815 813 812 811 811 810 811 811 812 813 814 815 814 815 813 815 815 815 816 814
779 783 785 789 793 796 798 801 804 806 807 809 811 814 816 816 816 816 815 817 818 817 817 816 813 811 811 811 810 810 811 814 814 816 816 817 816 815 816 817 816 816 816
776 779 783 787 791 794 796 799 803 805 806 808 809 811 814 814 814 815 816 816 816 816 815 815 814 812 812 812 813 813 814 815 816 817 817 819 818 818 817 818 817 817 817
772 775 779 783 786 790 794 797 799 801 803 806 807 807 809 811 813 814 815 816 815 814 814 814 815 815 815 815 815 814 815 816 816 817 818 821 819 820 818 818 818 818 818
765 768 772 776 780 784 789 793 796 798 800 803 808 809 808 809 812 812 813 814 814 814 815 815 817 816 816 816 817 815 817 818 818 817 819 822 821 819 819 819 818 819 819
758 762 766 771 775 781 786 791 794 795 797 801 807 809 809 808 808 810 811 814 812 814 815 816 816 818 817 816 819 818 819 819 818 819 820 822 821 820 820 820 820 820 820
754 756 762 768 773 777 782 787 790 791 795 800 804 806 807 805 806 808 810 812 812 813 814 817 816 819 819 818 820 821 820 819 819 820 821 821 822 822 820 821 820 821 821
754 756 760 766 770 774 778 781 784 788 793 797 799 802 803 804 804 806 807 809 811 812 814 817 816 820 819 818 820 820 820 820 820 820 819 820 822 821 821 822 821 820 821
755 757 761 765 768 772 776 780 784 787 791 794 796 799 800 801 802 803 805 808 810 812 814 816 816 817 819 820 820 820 820 820 819 820 820 820 821 820 821 820 819 820 820
759 760 763 767 770 772 776 780 782 785 788 790 793 795 796 798 800 802 804 806 808 812 814 816 817 817 818 818 819 818 818 819 820 819 820 820 819 819 818 818 818 818 818
762 764 766 769 771 773 776 778 780 783 785 788 790 793 794 796 798 800 802 805 808 811 812 814 815 816 815 815 816 817 817 817 818 818 819 818 817 818 817 815 816 816 817
765 766 767 769 771 773 774 776 778 780 783 786 788 790 793 794 796 798 800 803 804 807 809 811 812 812 813 813 813 814 813 815 816 817 818 817 816 815 815 814 814 814 814
766 767 768 769 770 771 772 774 776 778 781 784 786 787 789 792 793 795 796 798 800 802 804 806 807 808 808 808 809 810 809 811 813 815 815 815 814 813 813 812 812 812 812
766 766 767 768 768 768 769 771 772 775 778 780 782 784 785 788 790 792 793 795 797 798 800 801 802 803 804 804 805 806 806 808 810 812 812 811 811 810 810 810 810 810 809
Wind_Speed
5 5 4 4 9 10 11 14 13 15 14 12 12 12 13 13 13 12 12 12 12 12 13 13 13 13 14 15 15 15 14 15 14 12 13 13 12 15 16 16 15 14 11
7 6 8 6 9 9 10 10 13 14 15 13 12 9 8 9 9 8 9 10 11 12 13 14 14 14 14 15 15 14 14 12 11 8 7 5 10 15 9 9 7 9 7
10 9 11 11 9 9 9 9 10 11 12 11 10 10 10 9 6 5 5 7 10 13 15 16 16 15 16 18 17 15 15 15 11 11 8 3 6 3 5 7 6 6 5
10 9 9 11 10 9 7 8 9 10 10 10 8 7 7 7 4 4 6 8 9 10 10 11 12 12 14 16 17 17 18 16 13 9 15 14 8 3 2 3 5 7 7
14 12 10 10 8 7 7 7 8 8 8 7 6 5 4 3 5 4 4 6 7 8 9 9 10 10 10 11 12 13 16 18 19 16 9 10 11 11 7 3 7 5 8
12 14 11 11 11 9 8 8 8 7 6 6 5 4 4 3 3 2 3 2 3 4 5 5 6 7 7 8 8 9 14 16 16 15 12 11 5 7 7 5 7 7 11
19 13 13 17 16 15 13 11 9 7 6 5 4 3 3 3 3 3 2 2 2 2 5 5 6 7 8 8 8 8 11 14 16 16 15 15 14 9 8 6 4 3 1
17 14 15 19 19 18 16 13 11 9 7 5 4 4 3 3 2 2 2 2 2 3 6 7 7 8 8 8 7 6 7 9 8 8 7 8 7 7 6 4 3 2 5
8 8 14 17 17 18 15 13 12 10 8 7 5 3 3 3 2 3 3 4 4 4 5 5 6 7 7 7 6 4 6 7 6 4 5 5 4 3 2 2 3 3 2
7 8 13 17 16 16 14 12 11 11 9 7 5 4 3 3 3 3 3 4 5 5 5 6 6 6 7 6 5 4 4 4 3 3 2 2 1 1 1 2 1 3 3
7 9 14 15 14 13 13 13 12 11 9 7 6 5 4 4 3 3 3 4 4 4 4 4 4 4 4 3 2 1 2 2 2 2 3 2 2 2 1 1 1 2 3
7 11 16 16 13 12 12 12 11 10 8 7 6 5 4 3 3 2 2 2 2 2 2 2 1 1 1 1 2 2 3 3 3 3 3 3 3 4 4 3 2 1 1
8 11 14 16 17 16 14 12 11 10 9 8 6 5 4 3 2 1 0 0 1 0 1 1 0 1 1 2 4 5 6 7 7 6 6 6 5 6 4 4 3 2 3
12 11 11 14 15 16 15 14 12 11 10 9 8 6 5 4 3 2 1 1 0 0 0 1 1 1 2 3 5 7 8 8 9 8 9 7 7 6 5 4 4 3 2
12 13 12 13 15 15 14 13 12 12 11 10 9 8 6 4 3 2 2 2 3 2 1 2 3 4 3 5 7 9 10 9 10 9 10 9 9 8 6 4 5 4 3
14 15 14 16 17 17 16 15 15 13 11 9 9 8 7 6 5 4 4 4 4 4 4 4 4 5 6 6 8 9 9 8 8 9 7 5 3 5 8 6 8 7 4
15 17 17 19 19 19 17 17 15 13 12 10 9 9 9 8 7 6 7 7 7 6 7 6 6 7 7 7 8 10 9 9 9 8 6 5 5 5 4 4 4 6 6
14 16 18 18 18 17 16 15 16 15 13 12 12 11 10 9 9 10 9 10 9 10 9 7 7 8 8 9 8 9 9 9 8 7 6 4 4 3 4 3 2 1 3
10 15 17 15 16 17 16 16 15 13 13 14 14 13 11 10 11 12 13 13 12 11 10 10 10 8 8 7 7 7 6 6 5 4 3 3 2 2 4 3 2 1 1
6 9 10 12 14 14 15 15 14 14 15 14 13 12 11 11 12 14 15 15 14 12 12 11 10 8 7 7 6 6 5 4 4 3 2 1 1 1 3 2 3 2 2
5 9 10 11 12 13 14 13 14 16 14 13 12 12 11 12 14 15 15 16 14 12 11 10 10 8 7 7 6 5 4 4 4 3 2 2 1 2 2 3 3 3 3
8 8 10 9 9 11 13 13 14 12 12 12 12 11 12 14 15 15 15 15 14 11 11 10 8 8 8 10 8 7 4 5 3 3 3 3 2 2 3 3 3 3 4
7 7 8 9 8 10 11 12 12 12 12 11 11 11 13 15 15 16 16 15 14 13 12 11 11 10 10 10 11 10 7 6 5 4 6 4 3 4 3 3 2 5 4
5 6 9 9 9 10 11 10 12 12 12 12 12 12 14 15 15 14 15 15 15 15 14 13 11 11 10 12 12 12 9 10 8 7 7 5 4 5 5 5 5 6 5
3 5 5 6 7 9 11 12 13 14 14 13 12 13 16 17 16 15 17 16 16 17 16 14 13 12 13 15 14 14 13 11 10 8 7 5 5 4 5 5 6 6 6
3 4 5 7 8 9 11 13 15 16 15 14 14 14 18 18 16 14 15 19 18 20 20 18 16 16 16 12 12 15 14 13 11 9 8 7 7 6 6 6 7 8 8
Wind_Direction
309 297 271 247 224 209 207 206 201 205 204 207 213 224 229 234 237 242 245 245 246 247 246 250 254 250 249 254 257 258 258 260 263 267 273 271 271 271 267 267 277 278 272
263 276 272 228 226 221 206 207 208 207 207 210 212 219 219 229 235 235 240 246 249 249 250 253 255 252 253 258 257 251 253 258 247 254 292 283 285 272 260 257 265 279 276
246 268 276 227 213 220 206 193 193 199 203 205 209 221 235 244 239 234 224 239 248 251 250 252 251 254 253 259 258 255 245 247 243 237 242 263 262 330 254 272 275 286 284
223 259 261 230 207 201 196 182 179 180 187 194 200 209 227 231 221 213 234 246 248 252 254 257 260 262 261 264 267 265 264 249 245 239 245 248 244 244 277 254 266 276 285
214 237 232 222 203 186 183 172 163 168 174 177 180 185 196 210 234 242 243 247 254 253 257 261 268 271 272 271 267 266 263 257 255 240 234 235 225 236 238 258 250 267 291
217 234 221 189 188 176 177 169 159 156 158 165 172 177 180 191 193 201 202 210 229 247 258 263 267 274 283 287 281 273 260 258 252 246 231 219 214 205 207 221 242 254 280
223 228 200 186 185 177 177 174 166 152 155 161 162 169 180 179 167 179 195 210 230 259 277 279 280 280 283 284 285 286 276 265 259 256 252 254 245 236 231 225 264 254 252
236 231 215 196 187 177 176 172 164 153 151 151 153 159 163 160 168 190 208 233 255 272 282 287 287 287 286 284 280 267 267 264 251 236 234 209 213 212 212 204 188 257 235
244 239 219 200 184 174 175 168 158 152 150 151 146 151 165 181 198 228 240 249 266 270 285 290 293 293 296 295 290 280 255 251 240 225 200 197 198 211 194 203 213 196 260
222 207 195 185 180 170 162 161 159 157 153 152 152 167 183 203 224 234 246 256 265 270 273 279 285 292 293 292 287 279 251 224 212 205 162 142 156 152 164 157 180 208 234
197 183 175 170 164 162 162 162 160 158 157 161 167 172 191 208 224 236 253 262 267 265 265 266 271 282 289 287 272 241 207 171 172 182 135 150 168 168 151 131 163 196 210
177 170 165 160 164 169 170 172 168 165 165 168 169 173 188 193 184 209 240 257 263 272 254 255 267 304 347 40 82 102 109 120 117 104 104 94 108 99 91 107 98 143 241
169 168 167 176 177 179 179 180 177 177 173 172 171 177 183 177 168 158 189 298 254 314 8 33 109 100 109 94 97 106 97 96 91 85 88 88 94 87 76 72 74 49 57
179 185 185 189 188 187 187 187 187 185 179 177 177 184 195 192 182 207 211 205 234 235 338 47 76 130 117 134 126 119 112 106 98 89 84 82 82 80 70 62 52 31 22
195 194 196 198 196 194 192 193 196 191 186 185 183 183 191 191 187 198 215 213 223 203 161 111 93 92 114 131 136 131 125 117 109 98 88 88 84 76 69 59 42 23 13
213 207 203 202 201 202 201 196 194 191 187 195 196 185 184 187 190 195 208 214 198 168 154 134 120 104 94 126 147 138 131 127 129 125 115 107 100 76 63 62 58 51 36
224 214 209 206 204 202 202 203 197 190 189 192 205 195 187 184 195 203 200 197 187 172 155 138 134 114 114 121 136 135 133 130 128 121 105 83 68 60 53 44 54 56 46
236 219 210 207 203 198 196 194 189 187 186 190 202 201 197 190 195 201 197 197 181 175 163 155 141 131 126 133 136 134 132 130 123 120 107 78 57 47 43 42 40 50 48
238 212 202 203 191 187 185 182 183 182 186 196 200 202 199 193 195 196 195 193 184 179 171 167 154 150 147 150 150 150 138 135 129 128 123 75 46 32 11 19 12 331 299
217 180 169 172 178 175 177 177 180 187 199 201 201 200 201 201 200 200 192 191 190 185 181 179 170 179 165 172 179 176 166 158 163 161 138 156 118 11 330 335 345 330 307
127 131 149 162 168 167 170 179 186 199 201 195 194 198 204 205 204 198 194 193 189 190 181 180 180 182 184 188 184 174 176 189 177 188 198 226 241 261 279 295 327 308 288
113 126 136 144 155 166 175 185 196 195 192 190 194 200 205 207 205 199 194 193 191 189 190 192 198 203 202 196 205 216 205 206 208 210 220 234 236 243 242 283 293 269 284
133 139 141 149 167 179 190 193 199 187 187 188 195 202 205 204 201 196 194 192 192 196 201 204 211 214 214 215 212 216 214 224 226 225 223 234 253 259 279 267 254 253 265
162 165 165 174 187 196 203 209 207 196 191 196 200 198 202 200 198 196 197 194 195 199 207 212 217 219 217 220 219 220 216 225 230 236 233 237 242 253 272 281 264 253 247
181 188 207 207 207 205 209 209 206 202 196 202 202 200 204 202 202 203 204 207 212 208 208 215 217 214 222 229 230 225 216 217 218 218 223 238 243 251 262 264 255 252 249
196 220 231 233 236 228 223 219 211 211 205 206 207 205 205 204 207 209 217 225 222 225 226 229 234 240 238 239 237 232 228 224 217 215 231 239 241 246 249 252 257 252 248